Location: Unspecified
(47.6578°N, 23.5640°E)
Time: 14:30:14
(UTC+02:00)

ISS - Pass Details

Date: 17 December 2017
Orbit: 403 x 407 km, 51.6° (Epoch: 12 December)

Event Time Altitude Azimuth Distance (km) Brightness Sun altitude
Rises 17:11:34 0° 291° (WNW) 2,331 0.7 -6.1°
Reaches altitude 10° 17:13:46 10° 282° (WNW) 1,467 -0.2 -6.4°
Maximum altitude 17:16:46 34° 216° (SW) 696 -1.9 -6.9°
Drops below altitude 10° 17:19:46 10° 149° (SSE) 1,458 -1.0 -7.3°
Sets 17:21:56 0° 140° (SE) 2,313 -0.1 -7.6°
